Date String (YYYY-MM-DD hh:mm:ss) UTC,Instrument flags,Ambient pressure (hPa),Sample flow (lpm),Bypass flow (lpm),Sample temperature (°C),Ambient temperature (°C),ASC tube jacket temperature (°C),LED temperature (°C),Box temperature (°C),Sample RH (%),Span deviation,Mass concentration (μg/m³),Mass concentration (μg/m³),Mass concentration (μg/m³)
DateTimeUTC,F1_M11,P_M11,Q1_M11,Q2_M11,T1_M11,T2_M11,T3_M11,T4_M11,T5_M11,U1_M11,ZSPAN_M11,X0_M11,X2_M11,X1_M11
2022-04-16 22:00:00,,0820.2,5.01,0.00,27.1,26.3,00.0,35.9,29.0,10.2,0003.7,0026.47,0011.07,0009.36
2022-04-16 22:01:00,,0820.2,4.98,0.00,27.1,26.3,00.0,35.9,29.0,10.1,0002.9,0026.72,0011.09,0009.35
2022-04-16 22:02:00,,0820.2,4.99,0.00,27.1,26.3,00.0,35.9,29.0,10.2,0002.7,0027.62,0011.09,0009.34
2022-04-16 22:03:00,,0820.2,5.01,0.00,27.1,26.3,00.0,35.9,28.9,10.1,0003.0,0027.44,0011.08,0009.32
2022-04-16 22:04:00,,0820.2,4.99,0.00,27.1,26.3,00.0,35.9,28.9,10.1,0003.2,0027.75,0011.07,0009.31
2022-04-16 22:05:00,,0820.2,5.00,0.00,27.1,26.3,00.0,35.9,29.0,10.2,0003.4,0029.00,0011.15,0009.33
2022-04-16 22:06:00,,0820.2,5.02,0.00,27.1,26.3,00.0,35.9,29.0,10.2,0003.4,0030.34,0011.19,0009.30
2022-04-16 22:07:00,,0820.2,5.00,0.00,27.1,26.4,00.0,35.9,29.0,10.1,0002.4,0029.57,0011.30,0009.29
2022-04-16 22:08:00,,0820.2,5.00,0.00,27.1,26.4,00.0,35.9,29.0,10.3,0001.6,0029.17,0011.30,0009.25
2022-04-16 22:09:00,,0820.2,5.01,0.00,27.1,26.4,00.0,35.9,29.0,10.0,0001.1,0029.15,0011.27,0009.23
2022-04-16 22:10:00,,0820.2,4.99,0.00,27.2,26.4,00.0,35.9,29.0,10.0,0001.4,0028.71,0011.26,0009.22
2022-04-16 22:11:00,,0820.1,5.00,0.00,27.2,26.4,00.0,36.0,29.1,10.0,0002.6,0028.20,0011.24,0009.22
2022-04-16 22:12:00,,0820.1,5.01,0.00,27.2,26.4,00.0,36.0,29.1,09.9,0003.4,0028.04,0011.25,0009.24
2022-04-16 22:13:00,,0820.1,5.00,0.00,27.2,26.4,00.0,36.0,29.1,09.9,0003.9,0027.49,0011.27,0009.24
2022-04-16 22:14:00,,0820.1,5.00,0.00,27.2,26.4,00.0,36.0,29.1,10.0,0003.9,0027.93,0011.31,0009.23
2022-04-16 22:15:00,,0820.1,5.01,0.00,27.2,26.4,00.0,36.0,29.1,09.9,0003.8,0027.89,0011.27,0009.22
2022-04-16 22:16:00,,0820.2,4.99,0.00,27.2,26.4,00.0,36.0,29.1,09.9,0004.3,0027.46,0011.25,0009.23
2022-04-16 22:17:00,,0820.2,5.00,0.00,27.2,26.5,00.0,36.0,29.1,09.9,0004.3,0026.92,0011.18,0009.25
2022-04-16 22:18:00,,0820.2,5.01,0.00,27.2,26.5,00.0,36.0,29.1,09.9,0004.7,0026.67,0011.17,0009.27
2022-04-16 22:19:00,,0820.3,5.00,0.00,27.2,26.5,00.0,36.0,29.1,09.9,0005.5,0026.31,0011.14,0009.29
2022-04-16 22:20:00,,0820.3,5.00,0.00,27.2,26.5,00.0,36.0,29.1,09.9,0005.6,0026.67,0011.16,0009.31
2022-04-16 22:21:00,,0820.2,5.01,0.00,27.2,26.5,00.0,36.0,29.1,09.9,0005.4,0026.90,0011.19,0009.33
2022-04-16 22:22:00,,0820.2,4.99,0.00,27.3,26.5,00.0,36.0,29.1,09.9,0005.1,0026.56,0011.18,0009.35
2022-04-16 22:23:00,,0820.2,5.00,0.00,27.3,26.5,00.0,36.0,29.1,10.0,0004.8,0026.47,0011.22,0009.36
2022-04-16 22:24:00,,0820.2,5.02,0.00,27.3,26.5,00.0,36.1,29.2,09.9,0004.9,0026.28,0011.27,0009.39
2022-04-16 22:25:00,,0820.2,4.99,0.00,27.3,26.5,00.0,36.1,29.2,09.8,0004.8,0025.62,0011.23,0009.41
2022-04-16 22:26:00,,0820.0,4.99,0.00,27.3,26.6,00.0,36.1,29.2,09.8,0004.5,0025.15,0011.29,0009.43
2022-04-16 22:27:00,,0820.0,5.01,0.00,27.3,26.6,00.0,36.1,29.2,09.9,0004.0,0024.62,0011.27,0009.43
2022-04-16 22:28:00,,0820.0,5.01,0.00,27.3,26.6,00.0,36.1,29.2,09.9,0003.9,0024.35,0011.30,0009.43
2022-04-16 22:29:00,,0819.9,5.00,0.00,27.3,26.6,00.0,36.1,29.2,09.9,0003.4,0023.41,0011.25,0009.44
2022-04-16 22:30:00,,0819.9,5.00,0.00,27.3,26.6,00.0,36.1,29.2,09.9,0003.2,0023.36,0011.31,0009.46
2022-04-16 22:31:00,,0820.0,4.99,0.00,27.4,26.6,00.0,36.1,29.2,09.9,0003.2,0022.94,0011.33,0009.46
2022-04-16 22:32:00,,0820.0,5.01,0.00,27.4,26.6,00.0,36.1,29.2,10.0,0003.3,0022.09,0011.32,0009.45
2022-04-16 22:33:00,,0819.9,5.00,0.00,27.4,26.6,00.0,36.1,29.2,09.9,0003.6,0021.55,0011.31,0009.46
2022-04-16 22:34:00,,0819.9,5.01,0.00,27.4,26.6,00.0,36.2,29.3,09.8,0003.0,0021.69,0011.32,0009.47
2022-04-16 22:35:00,,0819.9,4.99,0.00,27.4,26.7,00.0,36.2,29.3,09.8,0002.2,0021.70,0011.26,0009.46
2022-04-16 22:36:00,,0819.9,5.01,0.00,27.4,26.7,00.0,36.2,29.3,09.8,0002.1,0021.81,0011.29,0009.47
2022-04-16 22:37:00,,0819.9,5.00,0.00,27.4,26.7,00.0,36.2,29.3,09.8,0001.8,0022.48,0011.27,0009.47
2022-04-16 22:38:00,,0819.9,4.99,0.00,27.4,26.7,00.0,36.2,29.3,09.8,0002.2,0023.56,0011.30,0009.48
2022-04-16 22:39:00,,0819.9,4.99,0.00,27.4,26.7,00.0,36.2,29.3,09.8,0002.1,0023.82,0011.32,0009.49
2022-04-16 22:40:00,,0819.9,5.01,0.00,27.5,26.7,00.0,36.2,29.3,09.8,0001.9,0023.42,0011.33,0009.51
2022-04-16 22:41:00,,0819.9,5.00,0.00,27.5,26.7,00.0,36.2,29.3,09.8,0000.7,0023.20,0011.27,0009.49
2022-04-16 22:42:00,,0819.9,5.00,0.00,27.5,26.7,00.0,36.2,29.3,09.8,-000.5,0023.13,0011.23,0009.50
2022-04-16 22:43:00,,0819.9,5.00,0.00,27.5,26.7,00.0,36.3,29.4,09.9,-000.8,0024.13,0011.24,0009.53
2022-04-16 22:44:00,,0819.9,4.99,0.00,27.5,26.8,00.0,36.3,29.4,09.9,-000.5,0024.05,0011.25,0009.52
2022-04-16 22:45:00,,0820.0,5.02,0.00,27.5,26.8,00.0,36.3,29.4,10.0,0000.2,0024.12,0011.23,0009.51
2022-04-16 22:46:00,,0820.0,5.00,0.00,27.5,26.8,00.0,36.3,29.4,09.9,0000.7,0024.36,0011.31,0009.52
2022-04-16 22:47:00,,0819.9,5.00,0.00,27.5,26.8,00.0,36.3,29.4,09.9,0000.0,0025.10,0011.31,0009.52
2022-04-16 22:48:00,,0819.9,4.99,0.00,27.5,26.8,00.0,36.3,29.4,09.8,-000.3,0025.54,0011.25,0009.51
2022-04-16 22:49:00,,0819.9,5.00,0.00,27.6,26.8,00.0,36.3,29.4,09.8,-000.6,0025.75,0011.27,0009.50
2022-04-16 22:50:00,,0819.8,5.01,0.00,27.6,26.8,00.0,36.3,29.4,09.8,-000.1,0025.83,0011.32,0009.49
2022-04-16 22:51:00,,0819.9,5.02,0.00,27.6,26.9,00.0,36.3,29.4,09.9,0001.0,0025.82,0011.30,0009.47
2022-04-16 22:52:00,,0819.9,5.00,0.00,27.6,26.9,00.0,36.3,29.5,09.8,0003.2,0027.81,0011.28,0009.47
2022-04-16 22:53:00,,0819.9,4.99,0.00,27.6,26.9,00.0,36.4,29.5,09.7,0005.0,0028.70,0011.31,0009.45
2022-04-16 22:54:00,,0819.9,5.02,0.00,27.6,26.9,00.0,36.4,29.5,09.7,0005.1,0028.56,0011.33,0009.43
2022-04-16 22:55:00,,0819.9,5.00,0.00,27.6,26.9,00.0,36.4,29.5,09.7,0004.6,0031.08,0011.36,0009.43
2022-04-16 22:56:00,,0819.9,4.99,0.00,27.6,26.9,00.0,36.4,29.5,09.7,0004.8,0031.11,0011.34,0009.43
2022-04-16 22:57:00,,0819.9,4.99,0.00,27.6,26.9,00.0,36.4,29.5,09.8,0004.5,0031.05,0011.29,0009.42
2022-04-16 22:58:00,,0819.9,5.01,0.00,27.7,26.9,00.0,36.4,29.5,09.8,0004.6,0030.55,0011.28,0009.40
2022-04-16 22:59:00,,0819.9,5.01,0.00,27.7,26.9,00.0,36.4,29.6,09.7,0005.0,0029.64,0011.35,0009.39
